Date String (YYYY-MM-DD hh:mm:ss) UTC,Instrument flags,absolute air pressure of the measurement (hPa),sample flow rate (lpm),inlet stack bypass flow (lpm),air temperature of the measurement (°C),ambient temperature measured by the external sensor (°C),aerosol sample conditioner tube jacket temperature (°C),OPC LED temperature (°C),internal box temperature (°C),relative humidity of the measurement (%),span deviation,mass concentration of particles derived from Lorenz-Mie calculation of OPC scattering (μg/m³),mass concentration of particles derived from Lorenz-Mie calculation of OPC scattering (μg/m³),mass concentration of particles derived from Lorenz-Mie calculation of OPC scattering (μg/m³)
DateTimeUTC,F1_M11,P_M11,Q1_M11,Q2_M11,T1_M11,T2_M11,T3_M11,T4_M11,T5_M11,U1_M11,ZSPAN_M11,X0_M11,X2_M11,X1_M11
2023-06-22 18:00:00,SystemResetWarning,0831.6,5.01,000.00,029.3,025.5,000.0,037.8,030.6,32.5,0000.0,0005.86,0003.22,0002.82
2023-06-22 18:01:00,SystemResetWarning,0831.5,5.01,000.00,029.3,026.0,000.0,037.8,030.6,31.1,0000.0,0005.33,0003.24,0002.83
2023-06-22 18:02:00,SystemResetWarning,0831.5,4.99,000.00,029.3,026.4,000.0,037.8,030.6,30.9,0000.0,0005.14,0003.25,0002.85
2023-06-22 18:03:00,SystemResetWarning,0831.4,5.00,000.00,029.3,026.8,000.0,037.8,030.7,32.3,0000.0,0005.25,0003.29,0002.87
2023-06-22 18:04:00,SystemResetWarning,0831.5,5.00,000.00,029.3,027.1,000.0,037.9,030.8,31.8,0000.0,0005.87,0003.31,0002.87
2023-06-22 18:05:00,SystemResetWarning,0831.5,5.00,000.00,029.4,027.3,000.0,037.9,030.8,31.0,0000.0,0006.66,0003.33,0002.89
2023-06-22 18:06:00,SystemResetWarning,0831.5,5.01,000.00,029.4,027.6,000.0,037.9,030.9,31.8,0000.0,0006.65,0003.35,0002.90
2023-06-22 18:07:00,SystemResetWarning,0831.4,4.99,000.00,029.4,027.7,000.0,037.9,030.9,31.7,0000.0,0007.33,0003.39,0002.92
2023-06-22 18:08:00,SystemResetWarning,0831.4,5.00,000.00,029.5,027.9,000.0,037.9,031.0,30.4,0000.0,0007.71,0003.44,0002.96
2023-06-22 18:09:00,SystemResetWarning,0831.4,5.00,000.00,029.5,027.9,000.0,037.9,031.1,29.4,0000.0,0008.69,0003.49,0003.01
2023-06-22 18:10:00,SystemResetWarning,0831.3,4.98,000.00,029.5,026.5,000.0,037.9,031.0,29.1,0000.0,0008.71,0003.50,0003.02
2023-06-22 18:11:00,SystemResetWarning,0831.3,5.01,000.00,029.5,024.8,000.0,037.8,030.9,30.9,0000.0,0008.72,0003.49,0003.03
2023-06-22 18:12:00,SystemResetWarning,0831.3,5.00,000.00,029.4,024.5,000.0,037.8,030.8,31.4,0000.0,0008.86,0003.48,0003.03
2023-06-22 18:13:00,SystemResetWarning,0831.3,5.01,000.00,029.3,024.8,000.0,037.8,030.5,32.6,0000.0,0009.00,0003.48,0003.04
2023-06-22 18:14:00,SystemResetWarning,0831.3,5.00,000.00,029.2,025.3,000.0,037.8,030.5,30.9,0000.0,0009.08,0003.47,0003.04
2023-06-22 18:15:00,SystemResetWarning,0831.3,5.00,000.00,029.2,025.8,000.0,037.8,030.4,30.5,0000.0,0008.96,0003.45,0003.04
2023-06-22 18:16:00,SystemResetWarning,0831.3,5.01,000.00,029.2,026.2,000.0,037.8,030.5,30.5,0000.0,0008.35,0003.43,0003.03
2023-06-22 18:17:00,SystemResetWarning,0831.3,4.99,000.00,029.2,026.6,000.0,037.8,030.6,30.8,0000.0,0008.34,0003.40,0003.02
2023-06-22 18:18:00,SystemResetWarning,0831.3,4.99,000.00,029.2,026.9,000.0,037.8,030.7,31.7,0000.0,0007.90,0003.35,0002.99
2023-06-22 18:19:00,SystemResetWarning,0831.3,5.01,000.00,029.3,027.2,000.0,037.8,030.7,32.4,0000.0,0007.63,0003.31,0002.95
2023-06-22 18:20:00,SystemResetWarning,0831.3,5.02,000.00,029.3,027.4,000.0,037.8,030.8,33.0,0000.0,0006.36,0003.27,0002.90
2023-06-22 18:21:00,SystemResetWarning,0831.3,4.99,000.00,029.3,027.6,000.0,037.8,030.8,31.6,0000.0,0006.89,0003.24,0002.84
2023-06-22 18:22:00,SystemResetWarning,0831.3,4.98,000.00,029.4,027.8,000.0,037.8,030.9,31.8,0000.0,0006.92,0003.25,0002.84
2023-06-22 18:23:00,SystemResetWarning,0831.3,5.00,000.00,029.4,027.9,000.0,037.9,031.0,32.1,0000.0,0006.77,0003.26,0002.83
2023-06-22 18:24:00,SystemResetWarning,0831.2,5.00,000.00,029.4,027.3,000.0,037.8,031.1,31.0,0000.0,0006.68,0003.27,0002.81
2023-06-22 18:25:00,SystemResetWarning,0831.2,5.00,000.00,029.4,025.3,000.0,037.8,031.0,31.2,0000.0,0006.69,0003.27,0002.77
2023-06-22 18:26:00,SystemResetWarning,0831.2,5.00,000.00,029.4,024.5,000.0,037.7,030.9,31.4,0000.0,0006.61,0003.24,0002.74
2023-06-22 18:27:00,SystemResetWarning,0831.2,5.01,000.00,029.3,024.6,000.0,037.7,030.6,32.2,0000.0,0006.96,0003.22,0002.69
2023-06-22 18:28:00,SystemResetWarning,0831.2,5.01,000.00,029.2,025.0,000.0,037.7,030.4,32.2,0000.0,0008.03,0003.24,0002.65
2023-06-22 18:29:00,SystemResetWarning,0831.3,5.00,000.00,029.2,025.5,000.0,037.7,030.5,33.6,0000.0,0008.23,0003.25,0002.61
2023-06-22 18:30:00,SystemResetWarning,0831.3,5.00,000.00,029.2,026.0,000.0,037.7,030.5,31.2,0000.0,0008.98,0003.26,0002.59
2023-06-22 18:31:00,SystemResetWarning,0831.2,5.00,000.00,029.2,026.4,000.0,037.7,030.6,30.7,0000.0,0009.95,0003.28,0002.57
2023-06-22 18:32:00,SystemResetWarning,0831.2,4.99,000.00,029.2,026.8,000.0,037.7,030.7,31.8,0000.0,0009.87,0003.27,0002.55
2023-06-22 18:33:00,SystemResetWarning,0831.2,5.00,000.00,029.2,027.1,000.0,037.7,030.7,32.2,0000.0,0009.92,0003.28,0002.52
2023-06-22 18:34:00,SystemResetWarning,0831.2,5.00,000.00,029.2,027.3,000.0,037.8,030.8,32.4,0000.0,0009.83,0003.25,0002.50
2023-06-22 18:35:00,SystemResetWarning,0831.2,5.00,000.00,029.3,027.5,000.0,037.8,030.9,32.8,0000.0,0009.98,0003.24,0002.47
2023-06-22 18:36:00,SystemResetWarning,0831.1,5.01,000.00,029.3,027.7,000.0,037.8,030.9,32.5,0000.0,0009.90,0003.22,0002.46
2023-06-22 18:37:00,SystemResetWarning,0831.2,5.00,000.00,029.3,027.5,000.0,037.8,031.0,31.8,0000.0,0010.11,0003.22,0002.45
2023-06-22 18:38:00,SystemResetWarning,0831.2,4.98,000.00,029.3,025.8,000.0,037.7,030.9,31.1,0000.0,0010.25,0003.25,0002.46
2023-06-22 18:39:00,SystemResetWarning,0831.2,5.01,000.00,029.3,024.5,000.0,037.7,030.8,30.8,0000.0,0009.68,0003.22,0002.46
2023-06-22 18:40:00,SystemResetWarning,0831.2,5.01,000.00,029.2,024.5,000.0,037.6,030.6,30.0,0000.0,0009.81,0003.21,0002.47
2023-06-22 18:41:00,SystemResetWarning,0831.2,4.99,000.00,029.1,024.9,000.0,037.6,030.4,30.0,0000.0,0009.25,0003.19,0002.47
2023-06-22 18:42:00,SystemResetWarning,0831.1,5.00,000.00,029.1,025.4,000.0,037.6,030.4,29.9,0000.0,0008.99,0003.17,0002.46
2023-06-22 18:43:00,SystemResetWarning,0831.1,5.00,000.00,029.1,025.8,000.0,037.7,030.4,30.5,0000.0,0008.75,0003.16,0002.48
2023-06-22 18:44:00,SystemResetWarning,0831.1,5.00,000.00,029.1,026.3,000.0,037.7,030.5,32.2,0000.0,0008.82,0003.16,0002.49
2023-06-22 18:45:00,SystemResetWarning,0831.1,4.99,000.00,029.1,026.6,000.0,037.7,030.5,31.8,0000.0,0008.82,0003.16,0002.51
2023-06-22 18:46:00,SystemResetWarning,0831.1,4.98,000.00,029.1,026.9,000.0,037.7,030.6,32.5,0000.0,0008.65,0003.18,0002.55
2023-06-22 18:47:00,SystemResetWarning,0831.1,5.01,000.00,029.1,027.2,000.0,037.7,030.7,31.8,0000.0,0009.16,0003.19,0002.58
2023-06-22 18:48:00,SystemResetWarning,0831.1,5.01,000.00,029.2,027.4,000.0,037.7,030.8,31.2,0000.0,0008.85,0003.19,0002.58
2023-06-22 18:49:00,SystemResetWarning,0831.1,4.99,000.00,029.2,027.6,000.0,037.7,030.8,30.1,0000.0,0008.63,0003.15,0002.58
2023-06-22 18:50:00,SystemResetWarning,0831.2,4.99,000.00,029.3,027.8,000.0,037.7,030.9,29.5,0000.0,0008.29,0003.13,0002.59
2023-06-22 18:51:00,SystemResetWarning,0831.1,5.00,000.00,029.3,027.9,000.0,037.8,030.9,29.1,0000.0,0007.92,0003.12,0002.57
2023-06-22 18:52:00,SystemResetWarning,0831.1,5.00,000.00,029.3,026.6,000.0,037.7,031.0,29.6,0000.0,0007.74,0003.09,0002.52
2023-06-22 18:53:00,SystemResetWarning,0831.1,5.00,000.00,029.3,025.3,000.0,037.7,030.9,30.4,0000.0,0006.69,0003.05,0002.50
2023-06-22 18:54:00,SystemResetWarning,0831.1,5.01,000.00,029.3,025.2,000.0,037.6,030.8,30.3,0000.0,0006.54,0003.05,0002.45
2023-06-22 18:55:00,SystemResetWarning,0831.1,5.01,000.00,029.2,025.6,000.0,037.7,030.5,30.9,0000.0,0006.71,0002.99,0002.40
2023-06-22 18:56:00,SystemResetWarning,0831.1,5.00,000.00,029.2,026.0,000.0,037.7,030.6,31.6,0000.0,0007.79,0002.95,0002.36
2023-06-22 18:57:00,SystemResetWarning,0831.1,5.00,000.00,029.2,026.4,000.0,037.7,030.6,31.6,0000.0,0007.63,0002.86,0002.30
2023-06-22 18:58:00,SystemResetWarning,0831.1,5.00,000.00,029.2,026.7,000.0,037.7,030.7,31.1,0000.0,0007.23,0002.84,0002.28
2023-06-22 18:59:00,SystemResetWarning,0831.1,5.00,000.00,029.2,027.1,000.0,037.7,030.7,31.0,0000.0,0007.72,0002.81,0002.26
